contact:dominique.lefevre@mio.osupytheas.fr, maurice.libes@osupytheas.fr, didier.mallarino@osupytheas.fr
Project:EMSO http://www.emso-fr.org/EMSO-France
Depth: 2436.0 m
Title:EMSO Ligure Ouest : Data MII capteur AQUADOPP
Date,Latitude,Longitude,X_East,Y_North,Z_Up,Amplitude_X,Amplitude_Y,Amplitude_Z,Batterie,SoundSpeed,Heading,Pitch,Roll,Pressure,TIS,Speed,Direction
, degrees North, degrees East, m.s-1, m.s-1,m.s-1, 1, 1, 1, Volt, m.s-1, degree, degree, degree, dbar, degree_C, m.s-1, degree
2023-07-23T00:04:03,42.805,6.029,-0.024,-0.009,-0.056,103.0,103.0,101.0,13.4,1505.2,332.5,-0.7,1.8,2471.525,13.28,0.025,249.4
2023-07-23T00:07:03,42.805,6.029,-0.03,0.012,-0.005,103.0,102.0,102.0,13.4,1505.2,333.9,-0.8,1.8,2471.549,13.29,0.032,291.8
2023-07-23T00:10:03,42.805,6.029,-0.038,0.01,-0.048,103.0,103.0,102.0,13.4,1505.2,331.2,-0.8,1.8,2471.533,13.29,0.039,284.7
2023-07-23T00:13:03,42.805,6.029,-0.019,0.002,-0.008,103.0,102.0,101.0,13.3,1505.2,331.0,-0.7,1.8,2471.522,13.29,0.019,276.0
2023-07-23T00:16:03,42.805,6.029,-0.035,0.032,-0.012,102.0,102.0,103.0,13.3,1505.2,347.4,-0.8,1.8,2471.483,13.29,0.047,312.4
2023-07-23T00:19:03,42.805,6.029,-0.021,0.008,-0.036,102.0,101.0,102.0,13.3,1505.2,333.0,-0.8,1.8,2471.485,13.29,0.022,290.9
2023-07-23T00:22:03,42.805,6.029,-0.013,-0.018,-0.052,104.0,102.0,102.0,13.4,1505.2,322.2,-0.8,1.8,2471.418,13.29,0.022,215.8
2023-07-23T00:25:03,42.805,6.029,-0.009,0.003,-0.022,102.0,103.0,102.0,13.4,1505.2,343.0,-0.8,1.8,2471.479,13.29,0.009,288.4
2023-07-23T00:28:03,42.805,6.029,-0.019,0.013,0.004,105.0,102.0,102.0,13.4,1505.2,345.2,-0.8,1.8,2471.491,13.29,0.023,304.4
2023-07-23T00:31:03,42.805,6.029,-0.028,0.004,-0.009,104.0,101.0,102.0,13.3,1505.2,338.8,-0.8,1.8,2471.462,13.29,0.028,278.1
2023-07-23T00:34:03,42.805,6.029,-0.022,0.003,-0.055,102.0,102.0,102.0,13.3,1505.2,341.5,-0.8,1.8,2471.458,13.29,0.022,277.8
2023-07-23T00:37:03,42.805,6.029,-0.035,-0.018,-0.023,103.0,102.0,102.0,13.3,1505.2,325.7,-0.8,1.8,2471.429,13.29,0.039,242.8
2023-07-23T00:40:03,42.805,6.029,-0.015,0.014,0.015,103.0,103.0,102.0,13.3,1505.2,337.0,-0.8,1.8,2471.446,13.29,0.02,313.0
2023-07-23T00:43:03,42.805,6.029,-0.033,0.0,-0.071,104.0,102.0,101.0,13.4,1505.2,342.5,-0.7,1.8,2471.486,13.29,0.033,270.0
2023-07-23T00:46:03,42.805,6.029,-0.028,0.012,-0.066,102.0,103.0,102.0,13.4,1505.2,345.2,-0.8,1.8,2471.463,13.29,0.03,293.2
2023-07-23T00:49:03,42.805,6.029,-0.007,0.002,-0.013,103.0,102.0,102.0,13.4,1505.2,328.8,-0.8,1.8,2471.447,13.29,0.007,285.9
2023-07-23T00:52:03,42.805,6.029,-0.016,0.009,-0.016,103.0,103.0,101.0,13.4,1505.2,339.3,-0.7,1.8,2471.429,13.29,0.018,299.4
2023-07-23T00:55:03,42.805,6.029,-0.011,-0.007,-0.032,102.0,102.0,102.0,13.4,1505.2,340.0,-0.8,1.9,2471.435,13.29,0.013,237.5
2023-07-23T00:58:03,42.805,6.029,-0.018,0.027,-0.031,103.0,102.0,102.0,13.4,1505.2,345.6,-0.8,1.9,2471.463,13.29,0.032,326.3
2023-07-23T02:04:03,42.805,6.029,-0.035,-0.009,-0.072,102.0,103.0,102.0,13.3,1505.2,332.9,-0.8,1.8,2471.932,13.28,0.036,255.6
2023-07-23T02:07:03,42.805,6.029,-0.025,0.02,-0.025,103.0,102.0,102.0,13.4,1505.2,350.3,-0.8,1.8,2471.855,13.28,0.032,308.7
2023-07-23T02:10:03,42.805,6.029,-0.016,0.0,-0.035,102.0,103.0,102.0,13.3,1505.2,334.9,-0.7,1.8,2471.734,13.28,0.016,270.0
2023-07-23T02:13:03,42.805,6.029,-0.024,-0.006,-0.06,103.0,103.0,102.0,13.4,1505.2,330.7,-0.7,1.8,2471.621,13.28,0.024,256.0
2023-07-23T02:16:03,42.805,6.029,-0.041,0.0,-0.059,103.0,102.0,102.0,13.4,1505.2,337.8,-0.7,1.8,2471.561,13.29,0.041,270.0
2023-07-23T02:19:03,42.805,6.029,-0.033,0.004,-0.028,103.0,103.0,102.0,13.4,1505.2,324.5,-0.8,1.8,2471.512,13.29,0.033,276.9
2023-07-23T02:22:03,42.805,6.029,-0.008,-0.007,-0.047,103.0,102.0,101.0,13.3,1505.2,334.7,-0.7,1.8,2471.473,13.29,0.01,228.8
2023-07-23T02:25:03,42.805,6.029,-0.012,0.014,0.0,102.0,102.0,102.0,13.4,1505.2,329.5,-0.7,1.8,2471.468,13.29,0.018,319.4
2023-07-23T02:28:03,42.805,6.029,-0.038,0.003,-0.042,103.0,103.0,102.0,13.4,1505.2,346.2,-0.8,1.8,2471.432,13.29,0.038,274.5
2023-07-23T02:31:03,42.805,6.029,-0.023,0.006,-0.034,103.0,105.0,102.0,13.4,1505.2,323.6,-0.8,1.8,2471.427,13.29,0.023,284.6
2023-07-23T02:34:03,42.805,6.029,-0.021,0.006,-0.022,102.0,103.0,100.0,13.3,1505.2,323.4,-0.8,1.8,2471.423,13.29,0.021,285.9
2023-07-23T02:37:03,42.805,6.029,-0.021,0.01,-0.025,104.0,102.0,102.0,13.4,1505.2,332.0,-0.7,1.8,2471.4,13.29,0.023,295.5
2023-07-23T02:40:03,42.805,6.029,-0.022,0.011,-0.038,102.0,103.0,102.0,13.4,1505.2,328.6,-0.7,1.8,2471.404,13.29,0.024,296.6
2023-07-23T02:43:03,42.805,6.029,-0.004,0.009,-0.056,103.0,102.0,102.0,13.3,1505.2,331.9,-0.7,1.8,2471.412,13.29,0.009,336.0
2023-07-23T02:46:03,42.805,6.029,-0.017,0.006,-0.027,103.0,103.0,102.0,13.4,1505.2,349.3,-0.8,1.8,2471.406,13.29,0.018,289.4
2023-07-23T02:49:03,42.805,6.029,-0.02,-0.014,-0.028,103.0,104.0,102.0,13.4,1505.2,328.8,-0.7,1.8,2471.366,13.29,0.024,235.0
2023-07-23T02:52:03,42.805,6.029,-0.004,-0.003,-0.022,104.0,102.0,101.0,13.4,1505.2,329.5,-0.7,1.8,2471.357,13.29,0.005,233.1
2023-07-23T02:55:03,42.805,6.029,-0.022,0.021,-0.028,103.0,102.0,101.0,13.3,1505.2,351.8,-0.8,1.8,2471.385,13.29,0.03,313.7
2023-07-23T02:58:03,42.805,6.029,-0.033,0.042,-0.021,104.0,102.0,102.0,13.4,1505.2,342.6,-0.8,1.8,2471.369,13.29,0.053,321.8
2023-07-23T03:04:03,42.805,6.029,-0.036,0.002,-0.065,103.0,103.0,101.0,13.3,1505.2,343.4,-0.7,1.8,2471.424,13.29,0.036,273.2
2023-07-23T03:07:03,42.805,6.029,-0.034,0.004,-0.044,103.0,104.0,102.0,13.4,1505.2,346.5,-0.8,1.8,2471.414,13.29,0.034,276.7
2023-07-23T03:10:03,42.805,6.029,-0.027,0.007,-0.014,103.0,103.0,102.0,13.3,1505.2,330.1,-0.8,1.8,2471.403,13.29,0.027,284.5
2023-07-23T03:13:03,42.805,6.029,-0.026,0.006,-0.05,102.0,103.0,101.0,13.4,1505.2,326.0,-0.8,1.8,2471.431,13.29,0.026,283.0
2023-07-23T03:16:03,42.805,6.029,-0.03,0.0,-0.036,102.0,103.0,102.0,13.4,1505.2,333.4,-0.8,1.8,2471.383,13.29,0.03,270.0
2023-07-23T03:19:03,42.805,6.029,-0.015,-0.002,-0.035,102.0,102.0,102.0,13.4,1505.2,353.0,-0.8,1.8,2471.39,13.29,0.015,262.4
2023-07-23T03:22:03,42.805,6.029,-0.027,0.008,-0.026,102.0,103.0,101.0,13.3,1505.2,334.2,-0.8,1.8,2471.384,13.29,0.028,286.5
2023-07-23T03:25:03,42.805,6.029,-0.009,0.0,-0.038,104.0,103.0,102.0,13.3,1505.2,337.0,-0.8,1.8,2471.374,13.29,0.009,270.0
2023-07-23T03:28:03,42.805,6.029,0.001,0.0,-0.029,103.0,102.0,101.0,13.3,1505.2,338.8,-0.8,1.8,2471.411,13.29,0.001,90.0
2023-07-23T03:31:03,42.805,6.029,-0.019,-0.002,0.003,102.0,103.0,101.0,13.3,1505.2,341.1,-0.7,1.8,2471.334,13.29,0.019,264.0
2023-07-23T03:34:03,42.805,6.029,0.0,0.028,0.0,103.0,103.0,102.0,13.3,1505.2,329.6,-0.8,1.9,2471.375,13.29,0.028,0.0
2023-07-23T03:37:03,42.805,6.029,-0.046,0.021,0.009,104.0,102.0,102.0,13.3,1505.2,331.1,-0.8,1.8,2471.377,13.29,0.05,294.5
2023-07-23T03:40:03,42.805,6.029,-0.014,0.01,-0.027,105.0,101.0,102.0,13.3,1505.2,333.4,-0.8,1.8,2471.357,13.29,0.017,305.5
2023-07-23T03:43:03,42.805,6.029,-0.01,-0.01,-0.028,103.0,103.0,102.0,13.3,1505.2,351.5,-0.8,1.8,2471.352,13.29,0.014,225.0
2023-07-23T03:46:03,42.805,6.029,-0.025,0.016,-0.069,105.0,100.0,102.0,13.3,1505.2,350.7,-0.8,1.8,2471.34,13.29,0.029,302.6
2023-07-23T03:49:03,42.805,6.029,-0.015,0.008,-0.018,103.0,102.0,101.0,13.4,1505.2,348.6,-0.8,1.8,2471.365,13.29,0.017,298.1
2023-07-23T03:52:03,42.805,6.029,0.002,0.02,-0.025,103.0,102.0,102.0,13.3,1505.2,352.8,-0.8,1.8,2471.357,13.29,0.02,5.7
2023-07-23T03:55:03,42.805,6.029,-0.035,0.011,-0.029,102.0,103.0,101.0,13.4,1505.2,347.0,-0.8,1.8,2471.366,13.29,0.036,287.4
2023-07-23T03:58:03,42.805,6.029,-0.025,0.015,-0.044,102.0,102.0,102.0,13.3,1505.2,338.8,-0.8,1.8,2471.367,13.29,0.029,301.0
2023-07-23T04:04:03,42.805,6.029,-0.026,0.003,-0.046,103.0,102.0,102.0,13.4,1505.2,350.3,-0.8,1.8,2471.422,13.28,0.026,276.6
2023-07-23T04:07:03,42.805,6.029,-0.038,0.031,-0.019,103.0,102.0,102.0,13.4,1505.2,344.3,-0.8,1.8,2471.385,13.29,0.049,309.2
2023-07-23T04:10:03,42.805,6.029,-0.049,0.017,-0.039,103.0,102.0,102.0,13.3,1505.2,335.5,-0.8,1.8,2471.388,13.29,0.051,289.1
2023-07-23T04:13:03,42.805,6.029,-0.03,0.01,-0.022,103.0,102.0,102.0,13.4,1505.2,332.9,-0.8,1.8,2471.391,13.29,0.031,288.4
2023-07-23T04:16:03,42.805,6.029,-0.009,0.026,-0.033,103.0,102.0,101.0,13.4,1505.2,351.7,-0.8,1.8,2471.348,13.29,0.027,340.9
2023-07-23T04:19:03,42.805,6.029,-0.018,0.019,-0.027,102.0,102.0,102.0,13.4,1505.2,344.4,-0.8,1.8,2471.384,13.29,0.026,316.5
2023-07-23T04:22:03,42.805,6.029,-0.005,-0.001,-0.032,102.0,102.0,102.0,13.4,1505.2,351.7,-0.8,1.8,2471.331,13.29,0.005,258.7
2023-07-23T04:25:03,42.805,6.029,-0.024,0.0,-0.066,102.0,103.0,102.0,13.4,1505.2,334.7,-0.8,1.8,2471.333,13.29,0.024,270.0
2023-07-23T04:28:03,42.805,6.029,-0.023,-0.014,-0.027,103.0,103.0,102.0,13.4,1505.2,321.3,-0.8,1.8,2471.398,13.29,0.026,238.7
2023-07-23T04:31:03,42.805,6.029,-0.019,0.017,-0.014,103.0,102.0,102.0,13.4,1505.2,343.7,-0.8,1.8,2471.323,13.29,0.025,311.8
2023-07-23T04:34:03,42.805,6.029,-0.017,0.011,-0.023,103.0,102.0,104.0,13.4,1505.2,342.7,-0.7,1.8,2471.349,13.29,0.02,302.9
2023-07-23T04:37:03,42.805,6.029,-0.024,0.007,-0.049,104.0,101.0,101.0,13.3,1505.2,329.3,-0.8,1.8,2471.331,13.29,0.025,286.3
2023-07-23T04:40:03,42.805,6.029,-0.046,0.006,-0.061,103.0,103.0,101.0,13.4,1505.2,332.5,-0.8,1.8,2471.336,13.29,0.046,277.4
2023-07-23T04:43:03,42.805,6.029,-0.02,0.002,-0.035,103.0,102.0,101.0,13.4,1505.2,332.9,-0.8,1.8,2471.324,13.29,0.02,275.7
2023-07-23T04:46:03,42.805,6.029,-0.006,-0.005,-0.025,103.0,103.0,102.0,13.3,1505.2,332.9,-0.7,1.8,2471.353,13.29,0.007,230.2
2023-07-23T04:49:03,42.805,6.029,-0.006,0.015,-0.02,104.0,100.0,103.0,13.3,1505.2,352.8,-0.8,1.8,2471.351,13.29,0.016,338.2
2023-07-23T04:52:03,42.805,6.029,0.001,-0.005,-0.019,104.0,101.0,103.0,13.4,1505.2,341.9,-0.8,1.8,2471.333,13.29,0.005,168.7
2023-07-23T04:55:03,42.805,6.029,0.0,0.002,-0.032,104.0,101.0,102.0,13.3,1505.2,336.0,-0.8,1.8,2471.295,13.29,0.002,0.0
2023-07-23T04:58:03,42.805,6.029,0.0,0.004,-0.013,103.0,102.0,102.0,13.3,1505.2,330.9,-0.7,1.8,2471.356,13.29,0.004,0.0
2023-07-23T05:04:03,42.805,6.029,-0.045,-0.006,-0.024,103.0,102.0,102.0,13.4,1505.2,321.7,-0.7,1.8,2471.337,13.29,0.045,262.4
2023-07-23T05:07:03,42.805,6.029,-0.019,-0.01,-0.059,104.0,100.0,101.0,13.4,1505.2,333.4,-0.8,1.8,2471.366,13.29,0.021,242.2
2023-07-23T05:10:03,42.805,6.029,-0.027,0.021,-0.042,102.0,103.0,103.0,13.4,1505.2,345.9,-0.8,1.8,2471.372,13.29,0.034,307.9
2023-07-23T05:13:03,42.805,6.029,-0.011,0.001,-0.031,102.0,103.0,102.0,13.4,1505.2,329.0,-0.8,1.8,2471.335,13.29,0.011,275.2
2023-07-23T05:16:03,42.805,6.029,-0.011,0.007,-0.049,102.0,101.0,102.0,13.4,1505.2,344.3,-0.8,1.8,2471.362,13.29,0.013,302.5
2023-07-23T05:19:03,42.805,6.029,0.009,-0.006,-0.032,103.0,102.0,102.0,13.4,1505.2,344.6,-0.8,1.8,2471.317,13.29,0.01,123.7
2023-07-23T05:22:03,42.805,6.029,0.01,-0.008,-0.05,103.0,103.0,101.0,13.3,1505.2,323.9,-0.8,1.8,2471.317,13.29,0.012,128.7
2023-07-23T05:25:03,42.805,6.029,-0.055,0.002,-0.051,102.0,102.0,102.0,13.4,1505.2,329.8,-0.8,1.8,2471.335,13.29,0.055,272.1
2023-07-23T05:28:03,42.805,6.029,-0.036,0.009,-0.074,104.0,102.0,101.0,13.3,1505.2,328.3,-0.7,1.8,2471.363,13.29,0.037,284.0
2023-07-23T05:31:03,42.805,6.029,-0.016,-0.001,-0.027,103.0,102.0,102.0,13.4,1505.2,333.8,-0.7,1.8,2471.355,13.29,0.016,266.4
2023-07-23T05:34:03,42.805,6.029,-0.008,0.016,-0.028,103.0,102.0,102.0,13.4,1505.2,339.3,-0.7,1.8,2471.323,13.29,0.017,333.4
2023-07-23T05:37:03,42.805,6.029,-0.017,0.035,-0.007,102.0,103.0,101.0,13.4,1505.2,341.9,-0.7,1.8,2471.369,13.29,0.038,334.1
2023-07-23T05:40:03,42.805,6.029,-0.038,0.018,-0.032,103.0,101.0,101.0,13.4,1505.2,345.9,-0.8,1.8,2471.382,13.29,0.042,295.3
2023-07-23T05:43:03,42.805,6.029,-0.029,0.0,-0.042,102.0,102.0,101.0,13.4,1505.2,341.1,-0.8,1.8,2471.298,13.29,0.028,270.0
2023-07-23T05:46:03,42.805,6.029,-0.037,0.015,-0.052,102.0,102.0,101.0,13.4,1505.2,352.8,-0.8,1.8,2471.353,13.29,0.039,292.1
2023-07-23T05:49:03,42.805,6.029,-0.037,0.026,-0.022,102.0,102.0,102.0,13.4,1505.2,343.8,-0.8,1.8,2471.322,13.29,0.045,305.1
2023-07-23T05:52:03,42.805,6.029,-0.016,0.018,-0.03,102.0,102.0,102.0,13.4,1505.2,348.6,-0.7,1.8,2471.328,13.29,0.024,318.4
2023-07-23T05:55:03,42.805,6.029,0.004,0.005,-0.04,102.0,103.0,102.0,13.4,1505.2,335.9,-0.8,1.8,2471.354,13.29,0.006,38.7
2023-07-23T05:58:03,42.805,6.029,-0.028,-0.002,-0.039,102.0,102.0,102.0,13.3,1505.2,333.4,-0.8,1.8,2471.326,13.29,0.028,265.9
2023-07-23T06:04:03,42.805,6.029,-0.003,0.001,-0.021,103.0,102.0,102.0,13.4,1505.2,350.1,-0.7,1.8,2471.381,13.28,0.003,288.4
2023-07-23T06:07:03,42.805,6.029,-0.017,0.021,-0.013,104.0,103.0,102.0,13.4,1505.2,341.9,-0.8,1.8,2471.381,13.29,0.027,321.0
2023-07-23T06:10:03,42.805,6.029,-0.018,0.022,0.003,104.0,103.0,102.0,13.4,1505.2,338.2,-0.8,1.8,2471.374,13.29,0.028,320.7
2023-07-23T06:13:03,42.805,6.029,-0.038,0.007,-0.023,102.0,102.0,101.0,13.3,1505.2,332.9,-0.8,1.8,2471.365,13.29,0.038,280.4
2023-07-23T06:16:03,42.805,6.029,-0.02,0.009,-0.005,102.0,103.0,101.0,13.3,1505.2,333.8,-0.8,1.8,2471.369,13.29,0.021,294.2
2023-07-23T06:19:03,42.805,6.029,-0.012,0.02,-0.008,103.0,102.0,102.0,13.4,1505.2,332.9,-0.8,1.8,2471.35,13.29,0.023,329.0
2023-07-23T06:22:03,42.805,6.029,-0.04,0.012,-0.027,102.0,102.0,102.0,13.4,1505.2,332.1,-0.8,1.8,2471.391,13.29,0.041,286.7
2023-07-23T06:25:03,42.805,6.029,-0.03,0.004,-0.031,103.0,102.0,102.0,13.4,1505.2,341.5,-0.7,1.8,2471.336,13.29,0.03,277.6
2023-07-23T06:28:03,42.805,6.029,-0.021,0.006,-0.022,103.0,103.0,101.0,13.3,1505.2,338.8,-0.8,1.8,2471.371,13.29,0.021,285.9
2023-07-23T06:31:03,42.805,6.029,-0.025,0.004,-0.024,103.0,102.0,102.0,13.3,1505.2,329.2,-0.7,1.8,2471.364,13.29,0.025,279.1
2023-07-23T06:34:03,42.805,6.029,-0.003,-0.008,-0.004,101.0,102.0,102.0,13.4,1505.2,348.9,-0.8,1.8,2471.319,13.29,0.008,200.6
2023-07-23T06:37:03,42.805,6.029,-0.008,0.006,-0.027,100.0,102.0,102.0,13.4,1505.2,335.6,-0.7,1.8,2471.367,13.29,0.01,306.9
2023-07-23T06:40:03,42.805,6.029,-0.029,0.005,-0.044,102.0,103.0,101.0,13.4,1505.2,326.0,-0.8,1.8,2471.364,13.29,0.029,279.8
2023-07-23T06:43:03,42.805,6.029,-0.039,0.031,-0.062,102.0,101.0,102.0,13.4,1505.2,340.9,-0.8,1.8,2471.344,13.29,0.049,308.5
2023-07-23T06:46:03,42.805,6.029,-0.003,0.018,-0.028,103.0,103.0,101.0,13.3,1505.2,343.1,-0.8,1.8,2471.376,13.29,0.018,350.5
2023-07-23T06:49:03,42.805,6.029,-0.015,-0.014,-0.053,102.0,103.0,102.0,13.4,1505.2,336.1,-0.8,1.8,2471.375,13.29,0.02,227.0
2023-07-23T06:52:03,42.805,6.029,-0.026,0.005,-0.04,103.0,102.0,101.0,13.3,1505.2,341.5,-0.7,1.8,2471.347,13.29,0.026,280.9
2023-07-23T06:55:03,42.805,6.029,-0.01,0.01,-0.022,102.0,102.0,101.0,13.3,1505.2,325.4,-0.8,1.8,2471.36,13.29,0.014,315.0
2023-07-23T06:58:03,42.805,6.029,-0.026,0.008,-0.02,103.0,102.0,101.0,13.4,1505.2,328.6,-0.8,1.8,2471.348,13.29,0.027,287.1
2023-07-23T07:04:03,42.805,6.029,-0.014,-0.01,-0.047,102.0,102.0,102.0,13.4,1505.2,329.7,-0.7,1.8,2471.426,13.29,0.017,234.5
2023-07-23T07:07:03,42.805,6.029,-0.035,-0.011,-0.029,103.0,101.0,101.0,13.4,1505.2,330.5,-0.7,1.8,2471.387,13.29,0.036,252.6
2023-07-23T07:10:03,42.805,6.029,-0.023,0.003,-0.042,103.0,102.0,101.0,13.3,1505.2,333.4,-0.7,1.8,2471.404,13.29,0.023,277.4
2023-07-23T07:13:03,42.805,6.029,0.006,-0.009,-0.045,103.0,102.0,100.0,13.4,1505.2,351.2,-0.7,1.8,2471.417,13.29,0.01,146.3
2023-07-23T07:16:03,42.805,6.029,-0.019,-0.009,-0.032,103.0,101.0,101.0,13.4,1505.2,326.8,-0.8,1.8,2471.401,13.29,0.021,244.7
2023-07-23T07:19:03,42.805,6.029,-0.017,-0.011,-0.025,103.0,102.0,101.0,13.4,1505.2,330.1,-0.7,1.8,2471.377,13.29,0.02,237.1
2023-07-23T07:22:03,42.805,6.029,0.004,0.011,-0.005,102.0,102.0,101.0,13.3,1505.2,339.7,-0.8,1.8,2471.408,13.29,0.011,20.0
2023-07-23T07:25:03,42.805,6.029,-0.018,-0.002,-0.013,102.0,102.0,102.0,13.4,1505.2,340.8,-0.8,1.8,2471.392,13.29,0.018,263.7
2023-07-23T07:28:03,42.805,6.029,-0.021,0.008,-0.03,103.0,102.0,101.0,13.3,1505.2,328.0,-0.8,1.8,2471.396,13.29,0.022,290.9
2023-07-23T07:31:03,42.805,6.029,-0.001,-0.009,-0.034,102.0,103.0,101.0,13.3,1505.2,331.2,-0.7,1.8,2471.415,13.29,0.009,186.3
2023-07-23T07:34:03,42.805,6.029,-0.012,0.004,-0.021,105.0,100.0,102.0,13.4,1505.2,347.1,-0.8,1.8,2471.357,13.29,0.012,288.4
2023-07-23T07:37:03,42.805,6.029,-0.01,-0.004,-0.058,102.0,102.0,101.0,13.4,1505.2,329.8,-0.8,1.8,2471.369,13.29,0.01,248.2
2023-07-23T07:40:03,42.805,6.029,0.0,-0.003,-0.021,102.0,103.0,101.0,13.3,1505.2,332.1,-0.8,1.8,2471.364,13.29,0.003,180.0
2023-07-23T07:43:03,42.805,6.029,-0.01,-0.014,-0.024,103.0,102.0,101.0,13.4,1505.2,350.1,-0.8,1.8,2471.391,13.29,0.017,215.5
2023-07-23T07:46:03,42.805,6.029,-0.006,-0.015,-0.038,102.0,102.0,102.0,13.4,1505.2,346.4,-0.7,1.8,2471.389,13.29,0.016,201.8
2023-07-23T07:49:03,42.805,6.029,-0.04,0.025,-0.05,103.0,102.0,101.0,13.4,1505.2,352.0,-0.8,1.8,2471.35,13.29,0.047,302.0
2023-07-23T07:52:03,42.805,6.029,-0.053,0.004,-0.057,101.0,102.0,102.0,13.4,1505.2,332.4,-0.8,1.8,2471.391,13.29,0.053,274.3
2023-07-23T07:55:03,42.805,6.029,0.0,-0.013,-0.028,103.0,101.0,101.0,13.4,1505.2,333.8,-0.8,1.8,2471.365,13.29,0.013,180.0
2023-07-23T07:58:03,42.805,6.029,-0.028,0.014,-0.035,103.0,102.0,102.0,13.4,1505.2,343.0,-0.8,1.8,2471.429,13.29,0.031,296.6
2023-07-23T08:04:03,42.805,6.029,0.0,0.016,-0.003,103.0,102.0,102.0,13.4,1505.2,328.6,-0.8,1.8,2471.419,13.28,0.016,0.0
2023-07-23T08:07:03,42.805,6.029,-0.007,-0.021,-0.072,102.0,102.0,101.0,13.4,1505.2,337.8,-0.7,1.8,2471.451,13.29,0.022,198.4
2023-07-23T08:10:03,42.805,6.029,-0.034,-0.002,-0.038,101.0,102.0,101.0,13.3,1505.2,341.5,-0.8,1.8,2471.446,13.29,0.034,266.6
2023-07-23T08:13:03,42.805,6.029,-0.027,0.005,-0.019,102.0,102.0,101.0,13.3,1505.2,328.3,-0.8,1.8,2471.409,13.29,0.027,280.5
2023-07-23T08:16:03,42.805,6.029,-0.022,0.0,-0.038,103.0,103.0,101.0,13.3,1505.2,353.2,-0.7,1.8,2471.398,13.29,0.022,270.0
2023-07-23T08:19:03,42.805,6.029,-0.004,-0.01,0.001,103.0,103.0,101.0,13.4,1505.2,343.4,-0.8,1.8,2471.454,13.29,0.01,201.8
2023-07-23T08:22:03,42.805,6.029,-0.009,0.02,-0.033,102.0,102.0,102.0,13.4,1505.2,350.1,-0.7,1.9,2471.397,13.29,0.021,335.8
2023-07-23T08:25:03,42.805,6.029,-0.035,-0.006,-0.043,102.0,102.0,102.0,13.4,1505.2,346.7,-0.7,1.8,2471.418,13.29,0.035,260.3
2023-07-23T08:28:03,42.805,6.029,-0.003,-0.016,-0.002,103.0,102.0,102.0,13.4,1505.2,341.9,-0.8,1.8,2471.394,13.29,0.016,190.6
2023-07-23T08:31:03,42.805,6.029,-0.012,0.008,-0.023,102.0,102.0,101.0,13.4,1505.2,331.5,-0.7,1.8,2471.426,13.29,0.014,303.7
2023-07-23T08:34:03,42.805,6.029,-0.033,-0.005,-0.058,103.0,102.0,101.0,13.3,1505.2,340.0,-0.7,1.8,2471.436,13.29,0.033,261.4
2023-07-23T08:37:03,42.805,6.029,-0.013,-0.008,-0.033,102.0,104.0,102.0,13.4,1505.2,340.0,-0.8,1.8,2471.411,13.29,0.015,238.4
2023-07-23T08:40:03,42.805,6.029,-0.009,-0.001,-0.057,103.0,102.0,101.0,13.4,1505.2,342.8,-0.8,1.8,2471.424,13.29,0.009,263.7
2023-07-23T08:43:03,42.805,6.029,-0.008,-0.001,-0.021,103.0,102.0,101.0,13.4,1505.2,352.8,-0.8,1.8,2471.379,13.29,0.008,262.9
2023-07-23T08:46:03,42.805,6.029,-0.013,0.015,-0.009,102.0,102.0,101.0,13.3,1505.2,333.4,-0.8,1.8,2471.437,13.29,0.019,319.1
2023-07-23T08:49:03,42.805,6.029,-0.002,-0.009,-0.033,104.0,102.0,101.0,13.3,1505.2,340.8,-0.8,1.8,2471.416,13.29,0.009,192.5
2023-07-23T08:52:03,42.805,6.029,-0.009,-0.01,-0.026,102.0,102.0,102.0,13.4,1505.2,347.8,-0.8,1.8,2471.397,13.29,0.013,222.0
2023-07-23T08:55:03,42.805,6.029,-0.016,-0.007,-0.029,102.0,103.0,103.0,13.4,1505.2,328.8,-0.8,1.8,2471.442,13.29,0.017,246.4
2023-07-23T08:58:03,42.805,6.029,-0.013,0.004,-0.036,102.0,102.0,101.0,13.4,1505.2,339.3,-0.7,1.8,2471.455,13.29,0.013,287.1
2023-07-23T09:04:03,42.805,6.029,-0.001,-0.01,-0.014,103.0,102.0,101.0,13.4,1505.2,333.9,-0.8,1.8,2471.484,13.28,0.01,185.7
2023-07-23T09:07:03,42.805,6.029,-0.005,-0.01,-0.046,102.0,103.0,101.0,13.3,1505.2,343.0,-0.8,1.8,2471.455,13.29,0.011,206.6
2023-07-23T09:10:03,42.805,6.029,-0.015,0.014,-0.034,101.0,101.0,102.0,13.3,1505.2,347.7,-0.8,1.8,2471.456,13.29,0.02,313.0
2023-07-23T09:13:03,42.805,6.029,-0.011,-0.013,-0.06,102.0,100.0,101.0,13.4,1505.2,347.7,-0.8,1.8,2471.45,13.29,0.017,220.2
2023-07-23T09:16:03,42.805,6.029,-0.018,0.011,-0.026,101.0,102.0,101.0,13.3,1505.2,325.7,-0.8,1.8,2471.426,13.29,0.021,301.4
2023-07-23T09:19:03,42.805,6.029,-0.04,0.017,-0.015,102.0,100.0,101.0,13.4,1505.2,330.7,-0.8,1.8,2471.417,13.29,0.043,293.0
2023-07-23T09:22:03,42.805,6.029,-0.025,0.008,-0.068,103.0,102.0,102.0,13.3,1505.2,349.5,-0.8,1.8,2471.434,13.29,0.026,287.7
2023-07-23T09:25:03,42.805,6.029,-0.02,-0.012,-0.064,102.0,101.0,101.0,13.4,1505.2,332.5,-0.8,1.8,2471.462,13.29,0.023,239.0
2023-07-23T09:28:03,42.805,6.029,0.006,-0.028,-0.025,100.0,101.0,102.0,13.4,1505.2,322.9,-0.7,1.8,2471.416,13.29,0.028,167.9
2023-07-23T09:31:03,42.805,6.029,0.003,-0.022,-0.032,101.0,102.0,102.0,13.3,1505.2,354.2,-0.8,1.8,2471.431,13.29,0.022,172.2
2023-07-23T09:34:03,42.805,6.029,-0.011,0.006,-0.04,103.0,101.0,100.0,13.4,1505.2,331.9,-0.8,1.8,2471.453,13.29,0.012,298.6
2023-07-23T09:37:03,42.805,6.029,0.006,-0.003,-0.035,102.0,100.0,101.0,13.4,1505.2,330.0,-0.7,1.8,2471.404,13.29,0.006,116.6
2023-07-23T09:40:03,42.805,6.029,-0.034,0.008,-0.039,101.0,100.0,101.0,13.4,1505.2,346.7,-0.7,1.8,2471.423,13.29,0.034,283.2
2023-07-23T09:43:03,42.805,6.029,-0.013,-0.02,-0.022,101.0,101.0,101.0,13.4,1505.2,328.6,-0.8,1.8,2471.425,13.29,0.023,213.0
2023-07-23T09:46:03,42.805,6.029,-0.009,-0.018,-0.055,102.0,101.0,101.0,13.4,1505.2,321.1,-0.7,1.8,2471.468,13.29,0.02,206.6
2023-07-23T09:49:03,42.805,6.029,0.015,-0.046,-0.082,101.0,101.0,101.0,13.3,1505.2,344.2,-0.8,1.9,2471.441,13.29,0.048,161.9
2023-07-23T09:52:03,42.805,6.029,-0.015,-0.017,-0.059,101.0,100.0,101.0,13.4,1505.2,343.5,-0.8,1.8,2471.427,13.29,0.022,221.4
2023-07-23T09:55:03,42.805,6.029,0.003,-0.008,-0.019,100.0,102.0,102.0,13.4,1505.2,329.8,-0.8,1.8,2471.445,13.29,0.008,159.4
2023-07-23T09:58:03,42.805,6.029,-0.044,-0.009,-0.082,101.0,102.0,101.0,13.4,1505.2,342.8,-0.8,1.8,2471.469,13.29,0.044,258.4
2023-07-23T10:04:03,42.805,6.029,-0.021,-0.014,-0.059,102.0,101.0,101.0,13.4,1505.2,346.5,-0.7,1.8,2471.473,13.28,0.025,236.3
2023-07-23T10:07:03,42.805,6.029,-0.017,0.003,-0.068,103.0,100.0,101.0,13.4,1505.2,351.7,-0.8,1.8,2471.446,13.28,0.017,280.0
2023-07-23T10:10:03,42.805,6.029,-0.016,-0.002,-0.042,102.0,100.0,101.0,13.4,1505.2,346.2,-0.8,1.8,2471.459,13.29,0.016,262.9
2023-07-23T10:13:03,42.805,6.029,-0.006,0.0,-0.044,102.0,101.0,101.0,13.3,1505.2,345.4,-0.8,1.8,2471.464,13.29,0.006,270.0
2023-07-23T10:16:03,42.805,6.029,0.001,-0.008,-0.032,102.0,101.0,101.0,13.4,1505.2,323.7,-0.7,1.8,2471.447,13.29,0.008,172.9
2023-07-23T10:19:03,42.805,6.029,-0.008,-0.005,-0.049,102.0,102.0,101.0,13.3,1505.2,331.0,-0.8,1.8,2471.448,13.29,0.009,238.0
2023-07-23T10:22:03,42.805,6.029,-0.006,-0.023,-0.041,102.0,102.0,102.0,13.4,1505.2,352.6,-0.8,1.8,2471.456,13.29,0.023,194.6
2023-07-23T10:25:03,42.805,6.029,-0.03,0.014,-0.052,102.0,104.0,100.0,13.4,1505.2,345.9,-0.8,1.8,2471.477,13.29,0.033,295.0
2023-07-23T10:28:03,42.805,6.029,-0.004,-0.006,-0.048,104.0,102.0,101.0,13.4,1505.2,338.2,-0.8,1.8,2471.503,13.29,0.007,213.7
2023-07-23T10:31:03,42.805,6.029,-0.024,-0.015,-0.036,102.0,102.0,102.0,13.4,1505.2,333.9,-0.8,1.8,2471.43,13.29,0.028,238.0
2023-07-23T10:34:03,42.805,6.029,-0.008,-0.006,-0.061,103.0,103.0,102.0,13.3,1505.2,333.4,-0.8,1.8,2471.42,13.29,0.01,233.1
2023-07-23T10:37:03,42.805,6.029,-0.024,0.001,-0.034,102.0,102.0,102.0,13.4,1505.2,336.6,-0.8,1.8,2471.437,13.29,0.024,272.4
2023-07-23T10:40:03,42.805,6.029,-0.026,0.007,-0.029,103.0,102.0,102.0,13.3,1505.2,335.5,-0.8,1.8,2471.417,13.29,0.026,285.1
2023-07-23T10:43:03,42.805,6.029,-0.01,0.003,-0.04,102.0,102.0,102.0,13.4,1505.2,325.2,-0.8,1.8,2471.432,13.29,0.01,286.7
2023-07-23T10:46:03,42.805,6.029,-0.028,0.014,-0.029,103.0,102.0,101.0,13.4,1505.2,346.9,-0.8,1.8,2471.436,13.29,0.031,296.6
2023-07-23T10:49:03,42.805,6.029,-0.014,-0.023,-0.036,104.0,101.0,101.0,13.4,1505.2,347.1,-0.8,1.8,2471.406,13.29,0.026,211.3
2023-07-23T10:52:03,42.805,6.029,-0.018,-0.022,-0.063,102.0,102.0,102.0,13.4,1505.2,334.2,-0.8,1.8,2471.43,13.29,0.028,219.3